Weather History for West Palm Beach, FL

Change the Weather History Date:

Wednesday, March 21, 2012

  Actual Average Record
Temperature  
Mean Temperature 76 °F 71 °F  
Max Temperature 82 °F 79 °F 92 °F (2003)
Min Temperature 69 °F 63 °F 41 °F (1971)
Degree Days  
Heating Degree Days 0 1  
Month to date heating degree days 3 21  
Since 1 July heating degree days 112 226  
Cooling Degree Days 11 6  
Month to date cooling degree days 181 124  
Year to date cooling degree days 497 359  
Growing Degree Days 25 (Base 50)    
Moisture  
Dew Point 67 °F    
Average Humidity 76    
Maximum Humidity 90    
Minimum Humidity 62    
Precipitation  
Precipitation 0.48 in 0.15 in 5.58 in (1993)
Month to date precipitation 1.75 3.09  
Year to date precipitation 5.95 9.04  
Snow  
Snow 0.00 in - - ()
Month to date snowfall 0.0  
Since 1 July snowfall 0.0  
Snow Depth 0.00 in    
Sea Level Pressure  
Sea Level Pressure 30.10 in    
Wind  
Wind Speed 16 mph (ESE)    
Max Wind Speed 25 mph    
Max Gust Speed 33 mph    
Visibility 9 miles    
Events Rain    
T = Trace of Precipitation, MM = Missing Value Source: NWS Daily Summary

Daily Weather History Graph

Daily Weather History Graph

Search for Another Location

Airport:

Trip Planner

Search our weather history database for the weather conditions in past years. The results will help you decide how hot, cold, wet, or windy it might be!

Date:

Astronomy

Mar. 21, 2012 Rise Set
Actual Time 7:22 AM EDT 7:32 PM EDT
Civil Twilight 6:59 AM EDT 7:55 PM EDT
Nautical Twilight 6:32 AM EDT 8:22 PM EDT
Astronomical Twilight 6:05 AM EDT 8:49 PM EDT
Moon 6:31 AM EDT 6:56 PM EDT
Length of Visible Light 12h 56m
Length of Day
12h 09m
Waning Crescent, 1% of the Moon is Illuminated
Mar 21
Waning Crescent
Mar 22
New
Mar 30
First Quarter
Apr 6
Full
Apr 13
Last Quarter

Hourly Weather History & Observations

Time (EDT) Temp. Heat Index Dew Point Humidity Pressure Visibility Wind Dir Wind Speed Gust Speed Precip Events Conditions
12:53 AM 73.0 °F - 68.0 °F 84% 30.08 in 10.0 mi ESE 15.0 mph - N/A   Scattered Clouds
1:53 AM 73.9 °F - 68.0 °F 82% 30.08 in 10.0 mi ESE 16.1 mph - N/A   Mostly Cloudy
2:53 AM 73.0 °F - 64.0 °F 73% 30.06 in 10.0 mi ESE 11.5 mph - N/A   Scattered Clouds
3:53 AM 73.9 °F - 66.0 °F 76% 30.06 in 10.0 mi ESE 15.0 mph 21.9 mph N/A   Mostly Cloudy
4:53 AM 72.0 °F - 66.9 °F 84% 30.06 in 10.0 mi East 16.1 mph - N/A   Scattered Clouds
5:53 AM 70.0 °F - 66.0 °F 87% 30.07 in 10.0 mi East 13.8 mph - N/A   Mostly Cloudy
6:22 AM 69.8 °F - 66.2 °F 88% 30.08 in 2.0 mi ESE 17.3 mph - 0.01 in Rain Rain
6:27 AM 69.8 °F - 68.0 °F 94% 30.08 in 0.8 mi East 8.1 mph - 0.05 in Rain Heavy Rain
6:32 AM 69.8 °F - 68.0 °F 94% 30.07 in 2.5 mi NNE 3.5 mph - 0.21 in Rain Heavy Rain
6:38 AM 69.8 °F - 68.0 °F 94% 30.07 in 5.0 mi Variable 3.5 mph - 0.24 in Rain Light Rain
6:53 AM 71.1 °F - 68.0 °F 90% 30.08 in 8.0 mi ENE 11.5 mph - 0.25 in Rain Light Rain
7:17 AM 73.4 °F - 69.8 °F 88% 30.09 in 2.0 mi SSE 18.4 mph 24.2 mph 0.10 in Rain Heavy Rain
7:26 AM 71.6 °F - 68.0 °F 88% 30.08 in 6.0 mi ESE 17.3 mph 24.2 mph 0.15 in Rain Light Rain
7:53 AM 73.0 °F - 68.0 °F 84% 30.09 in 10.0 mi SE 15.0 mph - 0.15 in   Mostly Cloudy
8:49 AM 73.4 °F - 68.0 °F 83% 30.12 in 10.0 mi ESE 16.1 mph 21.9 mph N/A   Mostly Cloudy
8:53 AM 73.9 °F - 66.9 °F 79% 30.12 in 10.0 mi ESE 15.0 mph - N/A   Mostly Cloudy
9:53 AM 75.0 °F - 66.0 °F 73% 30.14 in 10.0 mi SE 16.1 mph - N/A   Mostly Cloudy
10:53 AM 79.0 °F - 66.9 °F 66% 30.15 in 10.0 mi ESE 19.6 mph 29.9 mph N/A   Mostly Cloudy
11:53 AM 81.0 °F 83.3 °F 66.9 °F 62% 30.16 in 10.0 mi SE 20.7 mph - N/A   Mostly Cloudy
12:29 PM 78.8 °F - 68.0 °F 69% 30.15 in 10.0 mi ESE 18.4 mph - N/A   Mostly Cloudy
12:53 PM 81.0 °F 83.3 °F 66.9 °F 62% 30.15 in 10.0 mi SE 18.4 mph 27.6 mph N/A   Mostly Cloudy
1:53 PM 75.9 °F - 71.1 °F 85% 30.12 in 9.0 mi ESE 15.0 mph - 0.08 in Rain Light Rain
2:03 PM 77.0 °F - 69.8 °F 78% 30.12 in 10.0 mi ESE 20.7 mph 26.5 mph 0.00 in   Mostly Cloudy
2:48 PM 78.8 °F - 68.0 °F 69% 30.11 in 10.0 mi ESE 19.6 mph - 0.00 in   Mostly Cloudy
2:53 PM 78.1 °F - 68.0 °F 71% 30.11 in 10.0 mi ESE 19.6 mph - 0.00 in   Mostly Cloudy
3:53 PM 78.1 °F - 66.9 °F 68% 30.09 in 10.0 mi ESE 20.7 mph - N/A   Scattered Clouds
4:53 PM 79.0 °F - 66.0 °F 64% 30.07 in 10.0 mi ESE 20.7 mph - N/A   Scattered Clouds
5:53 PM 78.1 °F - 64.9 °F 64% 30.07 in 10.0 mi ESE 16.1 mph - N/A   Scattered Clouds
6:53 PM 75.9 °F - 64.9 °F 69% 30.09 in 10.0 mi ESE 15.0 mph - N/A   Scattered Clouds
7:53 PM 75.9 °F - 66.0 °F 71% 30.10 in 10.0 mi ESE 17.3 mph - N/A   Scattered Clouds
8:53 PM 75.0 °F - 66.0 °F 73% 30.11 in 10.0 mi ESE 15.0 mph - N/A   Partly Cloudy
9:53 PM 75.0 °F - 66.9 °F 76% 30.13 in 10.0 mi East 16.1 mph - N/A   Partly Cloudy
10:53 PM 75.0 °F - 66.9 °F 76% 30.14 in 10.0 mi ESE 17.3 mph - N/A   Scattered Clouds
11:53 PM 75.0 °F - 66.9 °F 76% 30.14 in 10.0 mi ESE 15.0 mph - N/A   Mostly Cloudy